N76SAM KLIT-KFSM

Flight info

Callsign N76SAM
Flight time 0h 43m
Altitude 20000
Route MAUME V74 FSM
Aircraft B738/M-VGD/A

Departure

Time 2026-04-25 23:07
Airport Bill & Hillary Clinton National Airport/Adams Field (KLIT)

Arrival

Time 2026-04-25 23:50
Airport Fort Smith Regional Airport (KFSM)
Time Latitude Longitude Altitude Speed Heading
2026-04-25 22:48 34.73094 -92.21982 272 ft 0 kts 198°
2026-04-25 23:01 34.73100 -92.21980 272 ft 2 kts 198°
2026-04-25 23:01 34.73117 -92.21974 272 ft 3 kts 198°
2026-04-25 23:01 34.73117 -92.21979 272 ft 3 kts 234°
2026-04-25 23:02 34.73085 -92.22059 272 ft 12 kts 243°
2026-04-25 23:02 34.73015 -92.22147 272 ft 7 kts 198°
2026-04-25 23:02 34.72975 -92.22179 272 ft 9 kts 252°
2026-04-25 23:02 34.72996 -92.22289 272 ft 20 kts 285°
2026-04-25 23:03 34.73042 -92.22507 272 ft 31 kts 284°
2026-04-25 23:03 34.73020 -92.22661 272 ft 20 kts 223°
2026-04-25 23:03 34.72889 -92.22821 272 ft 38 kts 226°
2026-04-25 23:03 34.72622 -92.23166 272 ft 63 kts 227°
2026-04-25 23:04 34.72391 -92.23464 272 ft 24 kts 227°
2026-04-25 23:04 34.72305 -92.23576 272 ft 15 kts 226°
2026-04-25 23:04 34.72266 -92.23629 272 ft 7 kts 244°
2026-04-25 23:04 34.72267 -92.23649 272 ft 0 kts 302°
2026-04-25 23:05 34.72286 -92.23684 272 ft 12 kts 310°
2026-04-25 23:05 34.72346 -92.23683 272 ft 2 kts 46°
2026-04-25 23:06 34.72391 -92.23627 272 ft 36 kts 46°
2026-04-25 23:06 34.72751 -92.23170 272 ft 115 kts 46°
2026-04-25 23:06 34.73493 -92.22223 273 ft 193 kts 46°
2026-04-25 23:06 34.74585 -92.20833 493 ft 258 kts 45°
2026-04-25 23:07 34.76217 -92.19464 969 ft 309 kts 25°
2026-04-25 23:07 34.78260 -92.18946 1442 ft 292 kts
2026-04-25 23:07 34.80296 -92.19002 1909 ft 296 kts 356°
2026-04-25 23:07 34.82363 -92.19272 2365 ft 299 kts 353°
2026-04-25 23:08 34.84424 -92.19627 2816 ft 300 kts 352°
2026-04-25 23:08 34.86498 -92.20017 3286 ft 301 kts 351°
2026-04-25 23:08 34.88560 -92.20419 3920 ft 302 kts 351°
2026-04-25 23:08 34.90629 -92.20827 4587 ft 294 kts 351°
2026-04-25 23:09 34.92543 -92.21192 5578 ft 267 kts 349°
2026-04-25 23:09 34.94340 -92.21490 6554 ft 264 kts 349°
2026-04-25 23:09 34.96128 -92.21726 7521 ft 244 kts 350°
2026-04-25 23:09 34.97664 -92.21921 8443 ft 206 kts 343°
2026-04-25 23:10 34.98905 -92.22760 9058 ft 214 kts 313°
2026-04-25 23:10 34.99606 -92.24440 9363 ft 238 kts 282°
2026-04-25 23:10 34.99431 -92.26479 9737 ft 248 kts 252°
2026-04-25 23:10 34.98628 -92.28256 10853 ft 225 kts 239°
2026-04-25 23:11 34.97809 -92.29618 12702 ft 171 kts 238°
2026-04-25 23:11 34.97330 -92.30761 13924 ft 142 kts 251°
2026-04-25 23:11 34.97071 -92.31980 14158 ft 162 kts 258°
2026-04-25 23:11 34.96772 -92.33487 14073 ft 203 kts 257°
2026-04-25 23:12 34.96380 -92.35242 14397 ft 220 kts 256°
2026-04-25 23:12 34.95956 -92.36982 15374 ft 204 kts 255°
2026-04-25 23:12 34.95562 -92.38527 16533 ft 178 kts 255°
2026-04-25 23:12 34.95208 -92.39895 17312 ft 165 kts 255°
2026-04-25 23:13 34.94876 -92.41173 17968 ft 154 kts 255°
2026-04-25 23:13 34.94530 -92.42513 18034 ft 179 kts 255°
2026-04-25 23:13 34.94128 -92.44069 18045 ft 207 kts 254°
2026-04-25 23:13 34.93661 -92.45860 18040 ft 237 kts 254°
2026-04-25 23:14 34.93129 -92.47892 18031 ft 266 kts 253°
2026-04-25 23:14 34.92539 -92.50134 18020 ft 286 kts 253°
2026-04-25 23:14 34.91924 -92.52453 18007 ft 288 kts 253°
2026-04-25 23:14 34.91305 -92.54778 18003 ft 290 kts 253°
2026-04-25 23:15 34.90677 -92.57132 18002 ft 293 kts 253°
2026-04-25 23:15 34.90045 -92.59502 18001 ft 295 kts 253°
2026-04-25 23:15 34.89418 -92.61855 18001 ft 296 kts 253°
2026-04-25 23:15 34.88781 -92.64244 18001 ft 297 kts 253°
2026-04-25 23:16 34.88143 -92.66635 18000 ft 297 kts 253°
2026-04-25 23:16 34.87506 -92.69031 18000 ft 297 kts 254°
2026-04-25 23:16 34.87209 -92.70880 17983 ft 296 kts 268°
2026-04-25 23:16 34.87569 -92.73340 18006 ft 298 kts 286°
2026-04-25 23:17 34.88385 -92.75682 18011 ft 302 kts 294°
2026-04-25 23:17 34.89363 -92.77953 18005 ft 302 kts 296°
2026-04-25 23:17 34.90377 -92.80191 18001 ft 301 kts 297°
2026-04-25 23:17 34.91377 -92.82428 18000 ft 300 kts 296°
2026-04-25 23:18 34.92356 -92.84712 18004 ft 312 kts 295°
2026-04-25 23:18 34.93354 -92.87175 18009 ft 336 kts 294°
2026-04-25 23:18 34.94381 -92.89848 18010 ft 358 kts 293°
2026-04-25 23:18 34.95406 -92.92633 18004 ft 360 kts 292°
2026-04-25 23:19 34.96405 -92.95433 18002 ft 361 kts 292°
2026-04-25 23:19 34.97393 -92.98271 18001 ft 365 kts 291°
2026-04-25 23:19 34.98371 -93.01127 18001 ft 366 kts 291°
2026-04-25 23:19 34.99342 -93.04003 18001 ft 367 kts 291°
2026-04-25 23:20 35.00307 -93.06888 18000 ft 367 kts 291°
2026-04-25 23:20 35.01268 -93.09783 18000 ft 368 kts 290°
2026-04-25 23:20 35.02223 -93.12675 18000 ft 368 kts 290°
2026-04-25 23:20 35.03177 -93.15578 18000 ft 368 kts 290°
2026-04-25 23:21 35.04115 -93.18443 18000 ft 368 kts 290°
2026-04-25 23:21 35.05064 -93.21347 18000 ft 368 kts 290°
2026-04-25 23:21 35.06011 -93.24255 18000 ft 368 kts 290°
2026-04-25 23:21 35.06957 -93.27163 18000 ft 368 kts 290°
2026-04-25 23:22 35.07900 -93.30067 18000 ft 368 kts 290°
2026-04-25 23:22 35.08844 -93.32977 18000 ft 368 kts 290°
2026-04-25 23:22 35.09787 -93.35890 18000 ft 368 kts 290°
2026-04-25 23:23 35.11685 -93.41765 17363 ft 373 kts 290°
2026-04-25 23:23 35.12633 -93.44702 16913 ft 370 kts 290°
2026-04-25 23:23 35.13574 -93.47618 16462 ft 367 kts 290°
2026-04-25 23:23 35.14507 -93.50516 16012 ft 365 kts 290°
2026-04-25 23:24 35.15431 -93.53387 15560 ft 357 kts 290°
2026-04-25 23:24 35.16312 -93.56119 15104 ft 334 kts 290°
2026-04-25 23:24 35.17130 -93.58658 14658 ft 310 kts 290°
2026-04-25 23:24 35.17890 -93.61017 14206 ft 294 kts 290°
2026-04-25 23:25 35.18620 -93.63293 13752 ft 283 kts 290°
2026-04-25 23:25 35.19327 -93.65503 13299 ft 276 kts 290°
2026-04-25 23:25 35.20019 -93.67672 12848 ft 272 kts 290°
2026-04-25 23:25 35.20705 -93.69811 12397 ft 269 kts 291°
2026-04-25 23:26 35.21511 -93.71864 11944 ft 267 kts 291°
2026-04-25 23:26 35.21845 -93.74066 11494 ft 263 kts 273°
2026-04-25 23:26 35.21774 -93.76305 11055 ft 263 kts 266°
2026-04-25 23:26 35.21565 -93.78521 10607 ft 262 kts 263°
2026-04-25 23:27 35.21310 -93.80715 10157 ft 259 kts 262°
2026-04-25 23:27 35.21042 -93.82885 9707 ft 257 kts 262°
2026-04-25 23:27 35.20770 -93.85037 9257 ft 255 kts 262°
2026-04-25 23:27 35.20499 -93.87174 8806 ft 253 kts 262°
2026-04-25 23:28 35.20230 -93.89288 8356 ft 251 kts 262°
2026-04-25 23:28 35.19964 -93.91391 7906 ft 249 kts 262°
2026-04-25 23:28 35.19699 -93.93479 7456 ft 247 kts 262°
2026-04-25 23:28 35.19441 -93.95526 7011 ft 246 kts 262°
2026-04-25 23:29 35.19178 -93.97611 6556 ft 244 kts 262°
2026-04-25 23:29 35.18916 -93.99658 6104 ft 243 kts 262°
2026-04-25 23:29 35.18643 -94.01695 5653 ft 243 kts 262°
2026-04-25 23:29 35.18359 -94.03713 5207 ft 244 kts 262°
2026-04-25 23:30 35.18066 -94.05765 4758 ft 246 kts 262°
2026-04-25 23:30 35.17779 -94.07833 4365 ft 245 kts 262°
2026-04-25 23:30 35.17508 -94.09864 4269 ft 241 kts 262°
2026-04-25 23:30 35.17245 -94.11895 4238 ft 243 kts 262°
2026-04-25 23:31 35.16984 -94.13946 4231 ft 246 kts 262°
2026-04-25 23:31 35.16722 -94.16020 4229 ft 248 kts 262°
2026-04-25 23:31 35.16459 -94.18110 4228 ft 249 kts 262°
2026-04-25 23:31 35.16196 -94.20206 4227 ft 250 kts 262°
2026-04-25 23:32 35.15932 -94.22309 4227 ft 251 kts 262°
2026-04-25 23:32 35.15668 -94.24414 4227 ft 251 kts 262°
2026-04-25 23:32 35.15404 -94.26525 4227 ft 251 kts 262°
2026-04-25 23:32 35.15140 -94.28636 4227 ft 251 kts 262°
2026-04-25 23:33 35.14876 -94.30750 4227 ft 251 kts 262°
2026-04-25 23:33 35.14613 -94.32859 4227 ft 251 kts 262°
2026-04-25 23:33 35.14350 -94.34968 4227 ft 251 kts 262°
2026-04-25 23:33 35.14088 -94.37079 4227 ft 251 kts 262°
2026-04-25 23:34 35.13826 -94.39188 4227 ft 251 kts 262°
2026-04-25 23:34 35.13564 -94.41299 4227 ft 251 kts 262°
2026-04-25 23:34 35.13303 -94.43413 4166 ft 254 kts 262°
2026-04-25 23:34 35.13196 -94.45596 3673 ft 260 kts 276°
2026-04-25 23:35 35.13909 -94.47569 3389 ft 250 kts 305°
2026-04-25 23:35 35.15062 -94.49024 3287 ft 229 kts 317°
2026-04-25 23:35 35.16231 -94.50208 3226 ft 209 kts 321°
2026-04-25 23:35 35.17332 -94.51259 3220 ft 194 kts 322°
2026-04-25 23:36 35.18387 -94.52255 3219 ft 190 kts 322°
2026-04-25 23:36 35.19077 -94.52907 3223 ft 189 kts 322°
2026-04-25 23:36 35.20460 -94.54211 3228 ft 188 kts 322°
2026-04-25 23:36 35.21494 -94.55186 3227 ft 188 kts 322°
2026-04-25 23:37 35.22516 -94.56151 3227 ft 188 kts 322°
2026-04-25 23:37 35.23543 -94.57119 3234 ft 185 kts 322°
2026-04-25 23:37 35.24555 -94.58073 3223 ft 182 kts 322°
2026-04-25 23:37 35.25550 -94.59012 3236 ft 178 kts 322°
2026-04-25 23:38 35.26530 -94.59935 3230 ft 178 kts 322°
2026-04-25 23:38 35.27507 -94.60857 3227 ft 177 kts 322°
2026-04-25 23:38 35.28484 -94.61777 3227 ft 177 kts 322°
2026-04-25 23:38 35.29463 -94.62700 3227 ft 177 kts 322°
2026-04-25 23:39 35.30440 -94.63621 3227 ft 178 kts 322°
2026-04-25 23:39 35.31420 -94.64545 3227 ft 178 kts 322°
2026-04-25 23:39 35.32399 -94.65467 3227 ft 178 kts 322°
2026-04-25 23:39 35.33379 -94.66391 3227 ft 178 kts 322°
2026-04-25 23:40 35.34358 -94.67313 3227 ft 178 kts 322°
2026-04-25 23:40 35.35326 -94.68225 3227 ft 178 kts 322°
2026-04-25 23:40 35.36306 -94.69148 3227 ft 178 kts 322°
2026-04-25 23:40 35.37286 -94.70071 3227 ft 178 kts 322°
2026-04-25 23:41 35.38267 -94.70995 3227 ft 178 kts 322°
2026-04-25 23:41 35.39253 -94.71907 3224 ft 178 kts 324°
2026-04-25 23:41 35.39959 -94.72421 3230 ft 177 kts 328°
2026-04-25 23:41 35.40751 -94.73560 3156 ft 180 kts 294°
2026-04-25 23:42 35.40676 -94.75078 3234 ft 189 kts 252°
2026-04-25 23:42 35.39755 -94.76284 3252 ft 203 kts 214°
2026-04-25 23:42 35.38393 -94.76706 3294 ft 202 kts 189°
2026-04-25 23:42 35.37035 -94.76413 3184 ft 198 kts 155°
2026-04-25 23:43 35.36216 -94.75148 3373 ft 191 kts 113°
2026-04-25 23:43 35.36026 -94.73509 3601 ft 207 kts 97°
2026-04-25 23:43 35.35680 -94.71806 3410 ft 200 kts 108°
2026-04-25 23:43 35.35185 -94.70261 3282 ft 188 kts 112°
2026-04-25 23:44 35.34707 -94.68844 3219 ft 177 kts 112°
2026-04-25 23:44 35.34269 -94.67490 3211 ft 167 kts 109°
2026-04-25 23:44 35.34202 -94.66025 2945 ft 176 kts 89°
2026-04-25 23:44 35.34327 -94.64624 3186 ft 155 kts 83°
2026-04-25 23:45 35.34407 -94.63364 3739 ft 146 kts 92°
2026-04-25 23:45 35.34056 -94.62149 4120 ft 156 kts 111°
2026-04-25 23:45 35.33591 -94.60897 4457 ft 166 kts 113°
2026-04-25 23:45 35.33118 -94.59577 4594 ft 180 kts 112°
2026-04-25 23:46 35.32598 -94.58112 4139 ft 187 kts 112°
2026-04-25 23:46 35.32099 -94.56668 3684 ft 181 kts 112°
2026-04-25 23:46 35.31654 -94.55272 3334 ft 170 kts 110°
2026-04-25 23:46 35.31390 -94.53905 3227 ft 162 kts 99°
2026-04-25 23:47 35.31407 -94.52531 3236 ft 163 kts 86°
2026-04-25 23:47 35.31554 -94.51138 3286 ft 165 kts 82°
2026-04-25 23:47 35.31800 -94.49720 2884 ft 182 kts 77°
2026-04-25 23:47 35.32077 -94.48167 1987 ft 186 kts 78°
2026-04-25 23:48 35.32264 -94.46762 2006 ft 157 kts 81°
2026-04-25 23:48 35.32434 -94.45369 1629 ft 166 kts 81°
2026-04-25 23:48 35.32611 -94.44022 1453 ft 158 kts 81°
2026-04-25 23:48 35.32781 -94.42706 1243 ft 155 kts 81°
2026-04-25 23:49 35.32945 -94.41407 1038 ft 154 kts 81°
2026-04-25 23:49 35.33109 -94.40118 837 ft 153 kts 81°
2026-04-25 23:49 35.33273 -94.38839 592 ft 149 kts 81°
2026-04-25 23:49 35.33439 -94.37544 480 ft 147 kts 81°
2026-04-25 23:50 35.33536 -94.36775 479 ft 38 kts 81°
2026-04-25 23:50 35.33571 -94.36491 479 ft 17 kts 81°
2026-04-25 23:50 35.33588 -94.36399 479 ft 14 kts 59°
2026-04-25 23:50 35.33652 -94.36366 479 ft 9 kts 359°
2026-04-25 23:51 35.33695 -94.36225 479 ft 37 kts 81°
2026-04-25 23:51 35.33738 -94.36033 479 ft 8 kts
2026-04-25 23:51 35.33790 -94.36041 479 ft 9 kts 17°
2026-04-25 23:51 35.33837 -94.36003 479 ft 9 kts
2026-04-25 23:52 35.33862 -94.36005 479 ft 3 kts 350°
2026-04-25 23:52 35.33864 -94.36006 479 ft 0 kts 349°